Regional Weather Roundup
Issued by NWS

Home | Current Version | Previous Version | Text Only | Print | Product List | Glossary On
Versions: 1 2 3 4 5 6 7 8 9 10 11 12 13 14 15 16 17 18 19 20 21 22 23 24 25 26 27 28 29 30 31 32 33 34 35 36 37 38 39 40 41 42 43 44 45 46 47 48 49 50
000
ASUS45 KBOI 272110
RWRID
WEATHER ROUNDUP FOR IDAHO
NATIONAL WEATHER SERVICE BOISE ID
300 PM MDT WED AUG 27 2014

NOTE: "FAIR" INDICATES FEW OR NO CLOUDS BELOW 12000 FEET
WITH NO SIGNIFICANT WEATHER AND/OR OBSTRUCTIONS TO VISIBILITY

IDZ012-014-272200-
SOUTHWEST IDAHO


CITY           SKY/WX    TMP DP  RH WIND       PRES   REMARKS
BOISE          SUNNY     86  40  19 W7        30.09F
CALDWELL       SUNNY     86  46  25 CALM      30.10F
MOUNTAIN HOME  SUNNY     85  45  24 NW7       30.10F
$$

IDZ016-017-272200-
SOUTHCENTRAL IDAHO


CITY           SKY/WX    TMP DP  RH WIND       PRES   REMARKS
BURLEY         SUNNY     78  49  35 VRB5      30.16F
JEROME         SUNNY     78  45  30 SW8       30.18F
TWIN FALLS     SUNNY     80  50  34 N8        30.17F
$$

IDZ019>023-272200-
SOUTHEAST IDAHO


CITY           SKY/WX    TMP DP  RH WIND       PRES   REMARKS
IDAHO FALLS    MOSUNNY   78  42  27 SW8       30.18F
POCATELLO      MOSUNNY   79  40  24 VRB7      30.18F
REXBURG        SUNNY     75  43  31 SW8       30.18F
$$

IDZ006-010-011-018-031-032-272200-
CENTRAL IDAHO MOUNTAINS


CITY           SKY/WX    TMP DP  RH WIND       PRES   REMARKS
MCCALL         SUNNY     76  39  26 VRB5      30.19F
HAILEY         MOSUNNY   75  48  38 S10       30.22F
STANLEY          N/A     74  38  27 VRB5      30.28F
SALMON         SUNNY     75  45  33 NW3       30.11F
CHALLIS        SUNNY     78  41  26 MISG      30.17F
$$

IDZ002-004-006-007-026-272200-
NORTHERN IDAHO


CITY           SKY/WX    TMP DP  RH WIND       PRES   REMARKS
LEWISTON       SUNNY     90  42  18 CALM      29.99F
LOWELL           N/A     88  51  28 N3        29.99F
COEUR D`ALENE  SUNNY     86  45  23 SE6       30.01F
MULLAN PASS    SUNNY     69  40  34 SW6       30.24F
$$


USA.gov is the U.S. government's official web portal to all federal, state and local government web resources and services.